Regional Weather Roundup
Issued by NWS Green Bay, WI

Home | Current Version | Previous Version | Text Only | Print | Product List | Glossary On
Versions: 1 2 3 4 5 6 7 8 9 10 11 12 13 14 15 16 17 18 19 20 21 22 23 24 25 26 27 28 29 30 31 32 33 34 35 36 37 38 39 40 41 42 43 44 45 46 47 48 49 50
000
ASUS43 KGRB 260310
RWRGRB

NORTH-CENTRAL AND NORTHEAST WISCONSIN REGIONAL WEATHER ROUNDUP
NATIONAL WEATHER SERVICE GREEN BAY WI
900 PM CST THU DEC 25 2014

WIZ005-009-010>012-018-019-260400-
NORTH CENTRAL WISCONSIN

CITY           SKY/WX    TMP DP  RH WIND       PRES   REMARKS
IRONWOOD       CLOUDY    30  30 100 CALM      29.85R
MANITOWISH WTR LGT SNOW  28  28 100 CALM      29.86S
ARBOR VITAE    LGT SNOW  32  31  95 CALM      29.87R
EAGLE RIVER    LGT SNOW  30  30 100 CALM      29.86R
LAND O LAKES   LGT SNOW  30  30  99 CALM      29.87R
RHINELANDER    LGT SNOW  29  28  96 CALM      29.87S FOG
PHILLIPS       LGT SNOW  29  29 100 CALM      29.87R
ANTIGO         CLOUDY    28  27  96 CALM      29.87S
TOMAHAWK       CLOUDY    29  28  95 CALM      29.88R FOG
MERRILL        MOCLDY    30  29  97 CALM      29.88R
$$

WIZ013-073-260400-
NORTHEAST WISCONSIN

CITY           SKY/WX    TMP DP  RH WIND       PRES   REMARKS
IRON MOUNTAIN  LGT SNOW  32  30  92 S3        29.89R FOG
MARINETTE      PTCLDY    34  28  80 SW5       29.92R
OCONTO           N/A     30  30 100 CALM      29.92S
$$

WIZ017-030-035>037-045-260400-
CENTRAL WISCONSIN

CITY           SKY/WX    TMP DP  RH WIND       PRES   REMARKS
MEDFORD        MOCLDY    28  26  94 CALM      29.86S
WAUSAU         MOCLDY    30  27  88 CALM      29.88R
MOSINEE        CLEAR     30  30 100 E3        29.89R
MARSHFIELD     MOCLDY    30  27  88 E6        29.86S
WISC RAPIDS    MOCLDY    29  26  89 CALM      29.89R
STEVENS POINT  MOCLDY    28  27  96 CALM      29.89R
WAUPACA        CLOUDY    32  31  94 CALM      29.91R FOG
SHAWANO        CLOUDY    32  30  93 CALM      29.91S
CLINTONVILLE   CLOUDY    30  30 100 CALM      29.90S
$$

WIZ038-039-048-051-260400-
FOX VALLEY

CITY           SKY/WX    TMP DP  RH WIND       PRES   REMARKS
NWS GREEN BAY  CLOUDY    32  31  96 CALM      29.91S
APPLETON       PTCLDY    32  32 100 CALM      29.91R
OSHKOSH        CLOUDY    37  32  82 SW9       29.91R
FOND DU LAC    CLOUDY    38  32  79 S15       29.91R
$$

WIZ022-050-052-260400-
EAST CENTRAL WISCONSIN

CITY           SKY/WX    TMP DP  RH WIND       PRES   REMARKS
STURGEON BAY   MOCLDY    34  28  80 S3        29.94S
MANITOWOC      CLOUDY    36  32  85 S5        29.93R
SHEBOYGAN      MOCLDY    35  31  85 S8        29.92R
$$

LMZ563-521-522-541>543-260400-
LAKESHORE

STATION/POSITION TIME  TEMP    WIND        PRES    VSBY  WAVE
                       AIR SEA DIR/SP/G                  HT/PER
                 (UTC) (F)     (DEG/KT/KT) (MB)    (MI)  (FT/S)
SHEBOYGAN LKSHOR 0300   40 37  200/ 15/ 20 1013.9R
KEWAUNEE LKSHORE 0300   36     180/  1/  2 1012.6R
ALGOMA MARINA    0300             CALM       N/A
NORTHPORT PIER   0300   34     150/  1/  3 1013.5S
SISTER BAY LKSHO 0200          180/  3/  6   N/A
CHAMBERS ISLAND  0300   35     180/  3/  7 1013.5R
MENOMINEE LKSHOR 0300   34     190/  4/  5 1014.0R
$$


USA.gov is the U.S. government's official web portal to all federal, state and local government web resources and services.